Theta_e
333 332 322 317 319 320 320 323 320 321 325 323 322 325 328 330 330 334 333 335 333 329 330 324 326 330 332 332 330 328 324 326 324 321 318 314 311 310 309 309 309 309 308 307 308 309 311 313 311
326 332 316 317 319 319 320 320 321 323 324 323 324 325 326 331 334 337 338 335 334 331 331 331 332 332 334 331 330 326 324 324 321 318 313 310 310 310 310 309 309 308 308 310 312 313 310 311 309
330 327 319 319 317 318 320 319 320 322 322 322 324 324 326 333 335 336 336 336 335 333 332 332 333 333 333 330 329 327 324 322 318 314 310 311 311 310 310 309 308 309 309 310 314 314 313 310 310
332 332 322 318 318 318 318 319 319 322 321 321 324 326 328 329 330 334 336 337 334 334 333 332 333 332 331 330 329 324 322 319 315 311 311 311 310 310 309 308 309 308 308 311 314 313 314 315 314
327 322 321 320 316 315 314 315 317 322 322 322 321 324 328 328 336 337 337 335 334 333 333 333 333 332 331 330 323 322 320 316 312 311 311 311 310 309 308 309 308 308 307 310 310 314 313 309 309
323 321 325 326 319 314 314 313 314 321 321 320 322 324 330 336 336 336 335 334 333 333 333 332 332 331 330 328 322 321 317 314 311 312 312 311 310 309 309 309 307 307 308 309 310 313 312 312 312
320 326 323 321 318 314 315 314 317 320 320 319 320 325 331 334 336 335 334 334 333 332 332 331 331 331 329 326 322 319 316 312 312 312 312 310 309 309 309 308 307 308 310 309 312 313 315 317 316
316 317 320 319 317 315 315 314 314 318 317 317 318 326 331 333 334 335 335 334 332 331 331 330 329 329 328 324 320 317 313 312 312 312 311 310 309 309 308 307 307 310 308 312 315 316 317 316 316
318 322 319 320 316 315 314 315 313 314 322 325 325 323 327 334 334 334 333 332 331 330 330 329 327 327 326 322 317 314 313 313 312 312 311 309 309 308 307 307 309 309 309 314 316 316 317 317 317
321 323 319 313 314 314 313 313 312 314 317 320 327 329 332 333 333 333 332 330 330 330 329 328 329 324 322 318 315 314 313 313 312 312 310 309 308 308 308 309 310 309 312 315 315 316 316 315 316
315 324 316 314 314 313 312 313 312 313 315 312 315 324 331 333 332 332 331 331 330 330 331 327 325 322 320 317 315 314 313 313 312 311 310 309 308 308 309 310 310 312 314 315 316 315 315 315 317
316 315 316 315 314 312 312 312 312 311 311 311 313 321 327 330 331 331 330 330 330 329 330 326 324 322 320 317 316 314 313 312 312 310 309 308 308 309 310 311 311 313 314 315 316 315 315 315 317
315 315 315 315 314 312 312 312 312 311 311 312 313 317 321 324 327 327 328 329 329 329 328 327 324 321 319 317 315 314 313 312 311 309 308 308 309 310 310 311 311 313 314 315 315 315 315 314 315
316 315 315 316 312 312 313 311 312 310 311 312 313 313 313 314 315 316 317 323 329 328 327 328 324 321 319 317 315 313 312 311 310 309 308 309 310 310 310 312 312 313 314 314 314 314 315 313 313
316 318 318 316 314 312 314 315 313 309 311 312 312 312 312 313 314 314 314 315 319 326 326 325 324 320 318 316 315 313 312 310 310 309 309 310 310 311 312 313 313 313 313 313 314 314 314 313 313
317 318 319 318 315 312 313 317 311 309 311 312 312 311 310 313 315 316 316 316 317 325 324 324 321 318 317 315 314 312 311 310 309 309 309 310 311 312 312 312 312 312 312 312 312 313 314 314 314
316 321 320 320 316 313 314 318 311 309 311 312 311 310 309 310 314 315 315 317 318 321 320 320 319 317 316 314 312 311 311 310 309 309 310 311 311 311 311 311 312 312 312 312 311 312 313 313 313
322 321 320 321 319 316 315 316 311 309 311 311 310 309 308 308 311 313 314 315 316 317 317 317 317 315 314 313 312 311 310 309 308 309 311 311 311 310 310 311 311 311 311 311 311 311 312 312 312
317 317 321 318 315 316 318 317 312 309 311 311 310 309 308 308 309 311 312 314 315 315 315 316 314 314 313 312 311 311 309 309 309 310 310 310 310 310 310 310 310 310 311 310 311 311 311 311 312
316 317 318 318 315 313 314 316 312 309 310 311 310 309 308 307 308 310 311 312 312 313 313 313 312 312 311 311 311 310 309 309 309 310 309 309 309 309 309 309 309 310 310 310 310 311 311 311 311
315 316 318 319 317 312 314 317 313 310 308 308 309 309 307 307 308 308 309 310 311 312 312 311 311 310 310 310 310 310 309 308 308 308 308 308 308 308 308 308 308 309 309 309 310 310 310 311 310
315 314 316 315 317 320 315 325 317 313 309 308 307 307 306 306 307 308 308 308 309 309 310 309 309 309 309 309 309 309 308 307 307 307 307 307 307 307 307 308 308 308 309 309 309 309 309 309 310
315 313 315 317 318 317 315 319 320 312 312 310 308 307 306 304 306 307 307 307 307 307 308 307 307 307 307 307 307 306 306 306 307 306 306 306 306 306 306 306 307 307 307 307 308 308 309 309 310
312 314 314 316 317 322 319 318 321 315 314 313 309 307 305 303 305 306 306 306 305 306 306 306 306 306 305 305 305 306 305 305 305 305 305 305 305 305 305 305 305 306 306 306 306 306 307 307 307
313 313 319 320 321 319 314 318 319 314 311 311 310 307 304 302 302 305 305 306 305 305 304 305 305 304 304 304 304 304 304 304 304 304 303 303 303 303 303 302 303 303 304 304 304 304 303 302 302
312 313 316 318 318 317 311 316 317 306 304 304 307 306 302 300 300 303 303 303 304 303 303 304 304 303 304 303 303 303 303 302 302 302 301 301 301 300 299 299 298 298 297 296 295 293 292 291 291
314 315 313 315 310 316 315 313 311 303 302 304 304 301 300 297 299 300 301 301 301 302 302 303 302 303 303 303 302 301 301 300 300 300 300 299 297 293 290 290 290 290 290 290 290 291 290 290 290
314 314 315 317 318 317 316 315 316 309 306 302 301 300 298 296 296 298 299 301 301 300 299 300 301 300 300 300 300 300 300 300 298 295 292 290 290 289 289 289 289 290 290 290 290 290 289 289 289
314 315 315 315 315 317 318 316 311 310 307 303 301 300 298 295 297 298 298 297 298 297 298 299 299 298 299 299 299 298 296 292 290 290 289 289 289 289 289 289 289 289 289 289 289 288 288 288 287
313 313 315 316 316 315 315 315 304 304 303 303 301 299 296 295 296 297 297 297 297 296 297 297 296 297 297 296 294 292 290 289 289 289 289 288 288 288 288 288 289 288 288 288 287 287 287 287 286
Wind_Speed
10 5 4 3 2 3 3 4 1 4 4 0 3 2 6 9 4 3 11 7 11 15 13 11 8 7 4 4 3 5 5 6 7 9 11 13 14 15 16 17 18 18 19 19 20 19 20 19 18
6 7 1 2 1 3 5 2 5 3 8 10 9 6 5 5 6 10 6 11 12 14 13 12 8 7 5 1 3 7 7 6 8 9 11 13 15 16 17 18 20 20 20 19 17 16 15 15 14
8 8 4 2 1 2 4 2 3 4 4 2 4 7 4 5 6 5 9 13 14 14 12 10 8 6 4 2 5 7 7 7 9 11 12 14 16 17 18 20 20 20 18 15 15 13 14 14 14
6 5 5 1 1 1 2 2 1 4 3 1 8 9 7 5 3 7 12 14 14 13 12 11 8 6 4 4 7 5 5 8 10 12 13 15 16 18 19 19 20 17 15 14 13 13 14 15 15
10 6 4 2 1 2 2 3 2 3 3 5 1 5 5 4 12 13 15 14 12 13 13 11 9 6 4 7 7 4 6 8 10 12 13 15 17 18 19 19 18 16 14 13 14 15 15 17 15
5 4 3 4 1 2 2 4 3 1 2 5 7 7 4 11 13 17 16 14 12 13 11 9 7 6 6 9 4 5 6 8 10 12 14 16 18 19 18 17 15 14 12 13 13 14 16 17 17
5 3 3 5 1 5 2 9 1 2 3 7 2 4 6 12 14 16 15 13 14 12 9 6 6 7 8 6 4 5 6 8 10 12 15 17 18 18 17 16 14 11 12 13 15 15 17 18 19
4 4 5 1 1 1 6 5 2 4 7 4 3 5 8 14 16 16 14 13 11 8 6 5 6 7 7 4 4 5 6 8 11 14 16 18 18 18 17 13 11 11 12 12 14 16 17 19 21
4 3 4 8 8 5 9 3 5 6 10 10 7 4 12 16 16 16 13 11 9 6 4 3 2 3 3 3 3 5 6 9 12 14 16 17 17 16 14 12 11 11 10 12 14 16 17 18 21
2 3 6 4 2 2 5 2 4 2 7 12 11 14 17 15 14 13 13 10 8 5 4 3 2 1 2 2 2 4 7 9 12 15 17 18 17 15 13 12 11 10 10 11 13 15 18 22 22
4 2 9 4 1 4 2 6 5 2 8 7 3 5 11 15 15 14 12 10 7 5 4 2 2 1 1 2 4 5 7 10 12 15 16 16 14 12 12 11 10 8 9 11 13 15 19 22 20
4 7 10 6 8 6 4 4 7 13 4 3 3 5 9 11 14 13 12 10 9 6 5 4 2 1 1 2 4 6 8 10 13 14 15 14 13 12 11 10 9 9 11 11 13 15 18 20 18
4 5 5 5 9 18 13 13 8 10 6 5 6 5 6 7 8 9 11 11 11 9 8 6 4 2 1 3 5 6 8 10 12 14 13 12 12 12 11 10 8 9 11 13 15 16 18 19 18
5 8 4 2 8 6 7 4 2 6 4 6 6 6 5 4 4 5 6 10 12 12 11 9 6 3 0 3 5 6 8 10 11 12 11 12 12 12 10 10 11 9 11 13 15 16 17 19 18
7 4 1 1 1 3 9 2 3 3 1 6 8 7 5 5 4 3 4 7 12 14 13 11 8 5 1 2 5 6 7 9 10 10 10 12 13 12 13 14 14 12 11 13 14 14 14 18 18
4 1 8 3 3 4 7 7 3 0 3 5 7 7 7 7 6 6 7 9 12 14 13 11 9 5 1 2 4 5 6 8 8 9 10 11 12 13 13 15 15 14 14 13 14 15 15 17 18
1 4 9 5 4 2 3 7 5 3 4 5 4 6 7 7 8 9 9 10 12 13 12 10 8 5 2 2 3 4 6 7 7 8 8 10 11 12 12 12 14 15 16 18 16 15 15 17 17
9 6 7 10 11 9 9 8 6 5 7 7 4 6 6 7 10 11 10 10 10 10 9 8 7 5 3 1 2 3 4 5 6 6 9 11 11 11 11 12 13 14 16 18 20 20 17 19 20
5 5 7 5 3 7 15 12 9 8 8 9 9 7 7 7 8 9 10 10 10 9 8 8 6 5 4 3 2 0 3 6 6 7 8 10 10 11 12 14 14 15 17 18 19 20 21 23 25
7 3 5 6 2 2 5 12 9 11 10 11 11 10 10 8 7 9 9 9 9 9 7 6 5 4 5 5 4 4 4 7 7 8 8 9 8 9 10 11 12 13 14 16 17 19 20 20 25
6 10 9 4 9 1 2 8 8 9 11 12 12 12 12 12 11 8 8 8 9 9 8 6 5 5 6 7 6 5 5 7 7 7 6 6 6 7 7 8 9 10 11 15 16 17 18 18 19
10 7 11 8 10 4 8 4 8 14 14 17 18 19 17 16 15 12 8 7 7 8 8 7 6 7 6 7 7 7 7 7 7 5 5 5 5 6 7 9 10 10 11 12 15 16 16 16 19
6 6 13 15 9 4 5 5 5 7 14 17 24 23 20 18 18 15 12 9 7 8 8 7 7 7 7 7 7 8 8 8 7 4 2 1 3 5 5 7 8 9 11 13 12 12 14 16 16
6 5 5 3 6 7 14 8 8 8 11 19 26 26 23 21 20 17 15 12 11 9 8 10 8 6 7 8 8 8 8 9 7 6 5 4 3 4 5 7 7 9 9 9 11 13 12 13 14
11 10 3 4 5 6 1 11 13 6 8 10 25 29 26 22 22 20 17 13 12 11 12 10 9 8 9 8 7 8 8 8 7 6 5 5 5 6 8 10 9 10 12 12 12 12 13 15 16
19 17 6 5 4 3 3 7 5 1 1 4 16 25 24 22 20 21 18 16 12 13 13 11 10 11 9 8 7 8 8 8 8 9 10 11 12 13 14 14 15 15 15 15 16 17 19 19 20
11 13 10 1 0 3 5 4 6 4 2 8 17 22 23 22 22 21 19 17 16 16 15 14 14 11 10 10 10 11 13 14 14 14 13 13 14 14 14 14 14 15 15 16 16 16 17 17 18
6 13 8 5 4 6 6 6 9 7 13 11 17 24 23 20 20 20 19 18 18 17 17 16 14 14 14 14 15 15 15 14 13 13 14 14 14 13 13 13 13 13 13 14 15 16 18 18 19
7 7 7 4 9 3 3 4 1 2 10 18 21 23 23 21 22 21 20 20 19 19 18 17 17 17 18 17 16 15 14 14 13 13 13 13 13 12 11 12 12 12 13 14 15 16 17 18 19
17 20 20 10 6 6 9 9 4 2 3 15 21 23 23 23 23 23 23 22 21 21 21 21 21 20 18 16 16 15 15 14 13 13 13 12 11 10 10 11 10 11 12 13 14 16 17 18 20
Wind_Direction
244 229 298 11 250 261 142 132 10 161 162 239 91 115 90 47 9 48 140 146 152 157 156 136 132 115 98 92 24 340 354 5 352 349 347 341 340 337 336 334 330 328 323 321 319 316 313 314 312
191 188 33 52 50 217 133 113 160 97 112 116 94 93 69 74 61 113 102 139 139 148 144 127 119 104 105 75 318 346 360 359 349 342 345 343 340 340 339 336 333 332 328 327 327 330 325 327 328
188 177 45 40 349 209 133 144 110 124 165 147 106 73 69 74 92 126 134 138 138 138 128 129 129 143 160 242 297 322 339 354 345 340 346 347 344 342 341 338 334 333 332 337 343 346 347 345 346
140 139 56 200 210 80 8 44 149 159 116 118 121 81 80 109 108 144 141 138 133 141 136 143 159 168 209 256 295 321 343 348 343 339 346 347 344 343 341 338 338 339 342 355 356 353 358 353 351
133 96 69 38 47 347 314 329 291 207 132 114 122 114 77 88 118 125 132 133 130 133 148 161 175 200 236 273 290 343 348 342 340 337 345 347 344 344 345 343 347 347 354 5 7 5 7 13 7
88 107 108 175 355 330 332 345 299 231 108 96 101 99 80 130 129 133 130 135 131 141 159 173 194 224 264 298 319 339 339 339 338 340 347 349 347 347 348 349 354 358 6 9 15 14 18 13 5
121 144 112 136 165 276 353 335 326 92 99 54 70 88 120 141 136 137 137 139 140 147 165 189 223 244 275 294 316 328 333 342 338 342 348 351 348 347 350 353 0 13 14 26 32 25 19 12 2
120 101 110 177 172 312 1 338 31 45 69 45 47 107 142 159 149 147 146 143 146 150 161 196 220 246 271 279 307 324 336 345 340 347 351 352 350 350 352 0 7 18 23 35 31 26 18 17 10
112 102 141 170 167 296 354 339 44 43 86 60 31 66 129 154 154 153 147 148 157 166 182 208 226 269 252 277 314 329 345 343 344 349 350 351 352 355 1 7 16 21 29 37 27 20 19 15 12
94 135 154 190 77 307 352 45 3 111 94 66 73 102 134 147 157 154 153 161 167 180 202 224 259 293 254 279 324 341 344 343 348 349 351 352 357 0 11 14 16 30 37 33 22 21 16 15 15
360 158 152 180 48 37 18 62 35 106 60 38 7 66 141 156 161 165 167 170 181 199 194 201 204 202 238 325 342 344 343 345 348 350 352 356 4 10 15 18 22 33 30 26 24 22 20 16 16
111 99 151 157 35 76 32 72 73 57 49 13 70 129 149 161 167 178 184 186 189 202 202 185 176 170 2 341 343 341 347 349 350 352 355 1 11 15 17 21 24 25 25 21 18 18 16 18 22
112 121 86 134 115 86 98 68 85 61 55 76 91 115 132 153 182 195 199 202 197 197 193 201 182 177 27 349 344 347 350 351 352 354 1 10 14 11 13 20 30 24 20 15 14 12 13 12 16
105 111 57 65 138 136 101 60 103 41 64 90 100 91 97 127 160 198 212 208 196 196 200 197 195 197 321 353 348 349 353 354 356 1 6 13 15 14 23 32 35 41 25 16 13 10 12 15 12
133 113 172 100 58 121 112 112 62 337 63 94 85 81 87 92 122 169 181 190 188 189 199 193 195 196 210 344 347 350 357 4 4 8 13 15 16 27 39 36 32 32 21 13 10 15 17 18 20
70 60 191 157 209 132 188 183 142 16 186 110 99 86 80 85 104 115 131 148 161 172 183 189 195 190 218 337 347 349 5 12 12 19 22 20 29 38 40 38 33 26 19 17 13 10 16 21 22
117 158 208 205 222 116 178 228 160 146 181 137 112 100 91 93 103 107 116 132 144 162 171 178 192 193 231 314 352 3 16 14 24 33 34 30 44 45 39 38 33 31 29 30 25 17 16 18 26
184 187 200 204 193 207 198 200 172 169 188 158 155 130 112 108 110 115 127 134 145 160 174 185 201 205 228 302 356 354 17 35 48 47 41 47 53 47 42 42 35 32 31 31 33 32 25 18 17
181 191 187 200 196 218 225 227 203 187 191 179 169 169 147 138 125 130 137 149 152 164 181 200 203 213 218 228 197 40 74 77 76 59 58 59 55 49 46 45 41 39 37 32 30 34 32 23 20
190 202 195 175 127 204 203 233 194 196 208 203 184 193 172 160 155 153 155 159 164 172 178 184 189 199 202 183 175 159 115 95 87 76 64 57 47 44 39 36 34 31 31 31 29 27 31 29 24
211 221 194 233 194 2 139 247 214 216 215 204 200 203 193 181 190 175 171 175 176 181 188 187 186 176 170 164 156 139 124 112 103 82 70 54 39 26 22 28 28 25 25 33 30 28 28 27 25
234 212 192 149 171 221 201 267 216 200 204 209 203 203 197 191 195 195 194 191 193 192 182 180 178 176 176 174 177 182 174 136 112 96 72 47 26 25 32 37 38 35 31 31 31 32 31 28 30
213 173 195 208 227 270 195 248 218 191 215 213 208 203 198 193 193 194 198 204 201 185 173 176 185 186 186 185 163 152 139 134 130 123 108 73 35 39 44 43 42 40 38 38 32 30 33 37 41
147 115 113 119 238 252 226 210 233 193 213 216 204 203 193 193 189 190 192 196 198 185 181 186 185 187 181 166 153 143 139 140 140 145 151 140 108 84 64 52 48 47 45 40 39 38 32 34 34
190 194 197 211 205 244 235 209 244 202 216 219 197 195 191 188 187 186 192 194 202 190 192 185 182 186 172 164 148 140 142 140 154 156 150 127 106 87 75 67 64 61 54 48 45 40 38 36 35
200 208 206 230 215 224 147 230 243 13 111 237 189 190 182 184 188 188 188 194 195 197 194 189 189 188 177 170 163 149 143 143 139 128 117 113 102 90 81 75 71 69 65 61 57 53 51 49 44
189 216 238 253 45 272 226 251 240 176 174 166 168 178 181 183 188 189 190 193 195 197 191 189 188 185 175 163 150 139 132 127 122 116 111 104 96 90 84 78 74 71 67 61 56 52 48 44 42
225 171 191 221 244 244 238 254 249 221 209 188 185 186 182 182 184 188 193 197 197 195 187 181 179 173 160 151 141 136 131 127 121 117 113 108 101 96 92 84 75 68 62 59 56 54 51 46 41
176 194 216 241 230 254 293 237 258 278 192 193 194 191 185 182 185 189 193 191 191 186 181 175 170 164 153 148 145 142 137 131 128 125 118 113 108 103 93 83 75 70 64 59 55 51 46 38 34
228 216 208 219 210 248 267 255 155 185 198 195 190 186 185 188 189 191 192 191 186 181 174 169 164 160 156 155 150 146 142 139 137 131 124 117 112 103 92 84 77 70 66 58 49 41 37 33 30